COSMOS 1092

导读

COSMOS 1092是苏联(归属独联体CIS)于1979年4月11日发射的卫星,属于苏联/俄罗斯历史悠久、规模庞大的“宇宙(COSMOS)”卫星系列。该系列涵盖多类用途,多数为军用航天器,推测这颗卫星承担军事相关侦察或技术试验任务。作为冷战时期航天活动的产物,它见证了苏联航天发展历程,目前已完成任务,最终成为近地轨道空间中的人造天体。

Basic Information
目录编号:
11326
目录名称:
COSMOS 1092
国际标识:
1979-030A
轨道中心:
EARTH
卫星名称:
COSMOS 1092
卫星全名:
--
卫星状态:
在轨 (已飞行17314 天)
发射日期:
1979-04-11 UTC
国别 :
俄罗斯(独联体) (CIS)
星等 :
--
Orbit Information
数据来源 国际轨道数据
星历时间: 2026-09-05T16:31:02+0800
9小时前
查看轨道信息
半长轴: 7357.437km
偏心率: 0.002808
轨道倾角: 82.953°
近地点辐角 234.785°
升交点赤经 346.338°
平近点角 188.916°
近地点: 958.64km
远地点: 999.96km
周期: 104.677分钟
每日圈数: 13.756659
Detailed Information
使用方式:
暂无
2D Orbit Map
3D Orbit Map
Orbit Altitude Analysis Chart
Orbit Inclination Analysis Chart
Orbit Comprehensive Analysis Chart
View Comprehensive Chart
Conjunction Data List
Event ID Objects TCA Miss Dist (km) Collision Risk Probability Collision Risk Index (CRI) Action
CDM_260907-051701-132606-599224
SDA_1682 (65992)
2026-09-07T
05:17:54+0000
2.029 km
极远距离
2.680655E-6 低风险 0.44